Powrót do katalogu

IRIDIUM 175

AktywnyŁącznośćPO
NORAD 43928·PAYLOAD·🇺🇸 United States

Wystrzelony Jan 11, 2019 z Vandenberg Space Force Base

Loading…

Następne Przeloty (najbliższe 24 godziny)

TLE

ŚwieżeSource: CelesTrak SupGP

Epoka: Sep 14, 2026, 21:25 UTC

1 43928C 19002G   26257.89270833  .00003245  00000+0  95877-3 0  2579
2 43928  86.4467 253.0042 0001139 322.6741   6.1153 14.43642819    17

Śledź IRIDIUM 175 w czasie rzeczywistym z AllMySat

Download on the App Store